La Paz, Mexico

1:16 PM MST on November 20, 2017 (GMT -0700)
Gen Manuel Marquez De Leon

Weather History for MMLP - April, 2013

Change the Weather History Date:

Tuesday, April 9, 2013

  Actual Average Record
Temperature  
Mean Temperature 72 °F -  
Max Temperature 88 °F 87 °F 98 °F (2012)
Min Temperature 57 °F 58 °F 53 °F (1997)
Cooling Degree Days 8    
Growing Degree Days 22 (Base 50)    
Moisture  
Dew Point 48 °F    
Average Humidity 49    
Maximum Humidity 88    
Minimum Humidity 22    
Precipitation  
Precipitation 0.00 in - - ()
Sea Level Pressure  
Sea Level Pressure 29.92 in    
Wind  
Wind Speed 8 mph ()    
Max Wind Speed 14 mph    
Max Gust Speed -    
Visibility 10.0 miles    
Events      
Averages and records for this station are not official NWS values.
T = Trace of Precipitation, MM = Missing Value Source: Averaged Metar Reports

Daily Weather History Graph

Daily Weather History Graph

Search for Another Location

Airport or City:

Trip Planner

Search our weather history database for the weather conditions in past years. The results will help you decide how hot, cold, wet, or windy it might be!

Date:

Astronomy

Apr. 09, 2013 Rise Set
Actual Time 7:05 AM MDT 7:40 PM MDT
Civil Twilight 6:42 AM MDT 8:03 PM MDT
Nautical Twilight 6:15 AM MDT 8:30 PM MDT
Astronomical Twilight 5:48 AM MDT 8:58 PM MDT
Moon 6:27 AM MDT (4/9) 7:18 PM MDT (4/9)
Length of Visible Light 13h 21m
Length of Day
12h 35m
Waning Crescent, 0% of the Moon is Illuminated
Apr 9
Waning Crescent
Apr 10
New
Apr 18
First Quarter
Apr 25
Full
May 2
Last Quarter

Hourly Weather History & Observations

Time (MDT) Temp. Dew Point Humidity Pressure Visibility Wind Dir Wind Speed Gust Speed Precip Events Conditions
2:40 AM 60 °F 54 °F 76% 29.86 in 2 mi South 11.2 mph - -  
5:50 AM 58 °F 52 °F 75% 29.89 in 2 mi South 6.7 mph - -  
5:59 AM 55.4 °F 50.0 °F 82% 29.95 in 10.0 mi South 11.5 mph - N/A   Clear
6:42 AM 53.6 °F 50.0 °F 88% 29.91 in 10.0 mi South 10.4 mph - N/A   Partly Cloudy
7:43 AM 57.2 °F 50.0 °F 77% 29.93 in 10.0 mi SSE 6.9 mph - N/A   Partly Cloudy
8:42 AM 60.8 °F 51.8 °F 72% 29.99 in 10.0 mi South 9.2 mph - N/A   Clear
8:50 AM 64 °F 55 °F 64% 29.95 in 12 mi South 6.7 mph - -  
9:46 AM 64.4 °F 50.0 °F 59% 29.96 in 10.0 mi South 6.9 mph - N/A   Clear
10:40 AM 69.8 °F 48.2 °F 46% 29.95 in 10.0 mi South 11.5 mph - N/A   Clear
11:49 AM 73.4 °F 44.6 °F 36% 30.00 in 10.0 mi WSW 4.6 mph - N/A   Clear
11:50 AM 78 °F 52 °F 30% 29.94 in 19 mi South 6.7 mph - -  
12:48 PM 77.0 °F 42.8 °F 29% 29.93 in 12.0 mi SSE 4.6 mph - N/A   Clear
1:47 PM 80.6 °F 41.0 °F 24% 29.89 in 10.0 mi South 6.9 mph - N/A   Clear
2:50 PM 84 °F 52 °F 22% 29.86 in 19 mi NW 8.9 mph - -  
2:59 PM 82.4 °F 41.0 °F 23% 29.96 in 10.0 mi NW 11.5 mph - N/A   Scattered Clouds
3:40 PM 82.4 °F 42.8 °F 25% 29.84 in 10.0 mi NW 9.2 mph - N/A   Scattered Clouds
4:50 PM 78.8 °F 42.8 °F 28% 29.82 in 10.0 mi SW 13.8 mph - N/A   Scattered Clouds
5:45 PM 77.0 °F 44.6 °F 32% 29.96 in 10.0 mi WSW 11.5 mph - N/A   Scattered Clouds
5:50 PM 82 °F 50 °F 22% 29.83 in 19 mi South 8.9 mph - -   Clear
6:44 PM 73.4 °F 44.6 °F 36% 29.87 in 10.0 mi SW 11.5 mph - N/A   Partly Cloudy
7:51 PM 68.0 °F 46.4 °F 46% 29.88 in 10.0 mi SSW 11.5 mph - N/A   Partly Cloudy
8:50 PM 67 °F 51 °F 45% 29.89 in 2 mi South 8.9 mph - -  
8:51 PM 64.4 °F 48.2 °F 56% 30.01 in 10.0 mi South 9.2 mph - N/A   Clear
9:47 PM 60.8 °F 48.2 °F 63% 29.93 in 10.0 mi South 9.2 mph - N/A   Clear
10:40 PM 60.8 °F 48.2 °F 63% 29.95 in 10.0 mi SSE 11.5 mph - N/A   Clear
11:45 PM 61 °F 51 °F 62% 29.91 in 2 mi SSE 11.2 mph - -